Theta_e
286 286 286 286 287 287 287 287 287 287 287 287 287 287 287 288 288 288 288 288 288 289 289 289 289 289 289 288 287 285 284 284 284 283 283 283 282 282 282 281 281 281 280 280 279 279 279 279 278 279 279 278 277 276 276 275 275 275 274 274 274 274 274 275 275 275 275 275 275 275 274 274 274 274 274 274 274 273 273 273 273 272 272 272 272
286 286 286 286 287 287 287 287 287 287 287 286 286 287 287 287 288 288 288 288 288 289 289 289 289 288 288 287 286 285 284 284 283 283 283 282 282 282 281 281 280 280 279 279 278 278 278 278 278 278 278 277 276 276 276 275 275 274 274 274 274 275 274 275 275 275 275 275 275 275 274 274 274 274 274 274 274 273 273 273 273 272 272 272 272
286 286 286 286 287 287 287 287 287 287 287 286 286 287 287 287 287 288 288 288 288 288 289 289 289 288 287 287 286 285 284 284 283 283 282 282 282 281 281 280 280 279 279 278 278 278 277 278 278 278 277 277 276 276 275 275 275 274 274 274 274 274 274 274 275 275 275 275 275 275 274 274 274 274 274 274 273 273 273 273 273 273 272 272 272
286 286 286 286 286 287 286 287 287 287 287 286 286 287 287 287 287 287 287 287 288 288 288 288 288 287 286 286 286 285 284 283 283 282 282 282 281 281 281 280 280 279 279 279 278 278 278 278 278 277 277 276 275 275 275 275 274 274 274 274 274 274 274 274 274 275 275 275 275 275 275 274 274 274 274 273 273 273 273 273 273 273 272 272 272
286 286 286 286 286 286 286 286 287 287 287 287 287 287 287 287 287 287 287 287 288 288 288 288 287 286 286 286 285 285 283 283 283 282 282 281 281 281 281 280 280 279 279 279 279 279 278 278 278 277 277 276 275 275 275 275 274 274 274 274 274 274 274 274 274 274 275 275 275 275 275 274 274 274 274 273 273 273 273 273 273 273 272 272 272
286 286 286 286 286 286 286 287 287 287 287 287 287 287 287 287 287 287 287 287 287 288 288 288 287 286 286 285 285 284 284 283 282 282 282 281 281 281 280 280 280 280 280 279 279 279 279 278 278 277 277 276 275 275 275 275 274 274 274 274 274 274 274 274 274 274 274 275 275 275 275 274 274 274 274 273 274 274 274 273 273 273 273 273 273
286 286 286 286 286 286 286 287 287 287 287 287 287 287 287 287 287 287 287 287 287 288 288 288 288 287 286 286 285 284 283 282 282 282 282 281 281 281 280 280 280 280 280 280 279 279 278 278 278 278 277 276 276 276 275 274 274 274 274 274 274 274 274 274 274 274 274 275 275 275 275 274 274 274 274 274 274 274 274 273 273 273 273 273 273
286 286 286 286 286 286 286 287 287 287 287 287 287 287 287 287 287 287 287 287 287 287 287 288 288 287 286 286 285 284 283 282 282 282 281 281 281 281 281 281 280 280 280 279 279 279 278 278 278 278 277 277 277 276 275 275 274 274 274 274 274 274 274 274 274 274 274 275 275 274 274 274 274 274 274 274 274 274 274 274 273 273 273 273 272
286 286 286 286 286 286 286 287 287 286 287 287 287 287 287 287 287 287 287 287 287 287 288 288 287 287 286 285 285 284 283 282 282 281 281 281 281 281 281 280 280 280 279 279 278 278 278 278 278 277 277 277 277 277 276 276 275 275 274 274 274 274 274 274 274 274 274 275 275 274 274 275 274 275 275 275 274 274 274 273 273 273 272 272 272
285 285 285 285 286 286 286 287 287 286 286 287 287 287 287 287 287 287 287 287 287 288 288 288 287 287 286 285 284 284 283 282 282 282 281 281 281 281 280 280 280 280 279 278 278 278 277 277 277 277 276 277 277 276 276 276 275 275 275 274 274 274 274 274 274 274 274 274 274 274 275 275 275 275 275 275 275 274 274 273 273 272 272 272 272
284 284 284 285 285 286 286 286 287 286 286 287 287 287 287 287 287 287 287 287 287 288 288 288 287 287 286 285 284 284 283 283 282 282 282 282 281 281 280 280 280 280 279 278 278 277 277 277 276 276 276 276 276 276 276 275 275 275 275 275 275 274 274 274 274 274 274 274 274 274 274 275 275 275 275 275 274 274 273 273 273 272 272 272 272
283 283 283 283 284 284 285 286 286 286 286 287 287 287 287 287 287 287 287 287 287 287 288 288 288 288 286 285 284 283 283 283 282 282 282 282 282 281 280 280 280 279 279 278 278 277 277 276 276 276 276 276 276 276 276 276 276 276 275 275 275 275 275 274 274 274 274 274 274 274 274 275 275 275 275 274 274 273 273 273 272 272 272 272 272
282 282 283 283 283 284 284 285 286 286 287 287 287 287 287 287 287 287 287 287 287 287 288 288 288 288 287 285 284 284 283 282 282 282 282 283 283 282 280 280 279 279 279 278 278 277 276 276 276 275 275 276 276 276 276 276 277 276 276 276 276 275 275 275 275 274 274 274 274 275 275 275 274 274 274 273 273 273 272 272 273 273 273 273 272
281 282 282 282 283 283 284 285 286 286 286 287 287 287 287 287 287 287 287 287 287 288 288 288 288 288 287 286 285 284 283 282 282 282 283 283 284 283 280 280 279 279 278 278 278 277 277 276 276 275 275 275 276 276 276 276 276 277 277 277 276 276 276 276 276 276 275 275 275 274 274 274 273 273 273 273 272 272 272 272 272 272 272 271 271
280 281 282 283 283 283 284 285 286 286 286 286 286 286 287 287 287 287 287 287 287 288 288 288 287 287 287 286 285 284 283 282 282 282 283 283 284 283 281 279 279 278 278 278 277 277 277 276 276 275 275 275 276 275 275 275 276 276 277 277 276 276 276 276 277 277 276 276 275 274 273 273 273 272 273 273 273 272 272 272 271 270 270 269 268
281 282 282 283 282 282 283 284 285 286 286 286 286 286 286 286 286 287 287 287 287 287 288 287 286 286 286 286 284 283 283 282 282 282 283 283 284 283 281 279 279 278 278 277 277 277 277 276 276 275 275 275 275 276 276 275 275 275 276 276 276 276 276 276 276 275 275 275 274 274 273 273 273 273 273 273 272 271 270 270 269 268 268 267 267
281 281 281 281 281 282 283 284 285 286 286 286 286 286 286 286 286 286 286 287 287 287 287 287 287 286 286 285 284 283 282 282 282 282 283 283 284 283 280 279 278 278 277 277 277 276 276 276 276 275 275 275 275 276 276 275 275 275 275 275 275 275 275 275 274 274 274 274 274 274 273 273 273 272 272 272 271 270 268 268 267 267 266 266 266
279 279 279 280 281 282 283 284 285 286 286 287 287 286 286 286 286 286 286 286 287 287 287 287 286 286 286 285 284 283 282 282 282 282 283 283 284 283 280 279 278 278 277 277 276 276 276 276 276 275 275 275 275 276 276 276 275 274 274 274 273 273 273 273 273 273 273 273 273 272 272 272 271 271 271 270 270 268 266 265 265 264 264 264 264
278 278 279 280 280 281 282 284 285 285 286 286 286 286 286 285 285 286 286 286 286 287 287 287 286 285 285 285 283 282 281 281 281 282 282 283 283 282 280 279 278 277 277 276 276 276 276 276 276 275 275 275 275 276 277 276 275 274 274 273 273 273 273 273 273 273 272 272 272 272 271 271 270 270 269 268 267 266 264 263 263 262 262 262 263
278 278 279 279 280 281 282 282 283 285 286 286 286 286 285 285 285 285 285 286 286 286 286 286 285 284 284 284 283 281 281 281 280 281 282 283 283 282 280 279 278 277 277 276 276 275 275 276 276 276 275 275 275 276 277 277 275 274 274 273 273 273 273 273 273 272 272 271 271 271 270 270 269 268 267 266 266 265 263 263 262 260 260 260 261
277 278 278 279 280 280 281 282 283 285 286 286 285 285 285 285 285 285 285 285 286 286 286 285 284 283 283 282 282 281 281 280 280 281 282 283 283 282 280 279 278 277 276 276 276 275 275 275 276 276 276 275 276 277 277 277 276 275 274 274 274 274 273 273 272 272 271 271 270 270 269 268 267 266 266 266 265 264 263 262 262 261 260 259 260
275 276 276 277 279 280 281 282 283 285 285 285 285 285 285 285 285 285 285 286 286 286 285 284 283 282 281 281 281 280 280 280 280 280 281 282 283 282 281 280 279 278 276 276 276 275 275 275 276 276 276 276 276 277 278 278 277 276 275 275 274 273 273 272 272 271 271 270 269 268 267 266 266 266 266 265 264 263 263 262 262 261 260 260 259
274 274 275 276 278 280 281 282 284 285 285 285 285 285 285 285 286 286 286 286 286 285 284 283 282 281 280 280 280 279 279 279 279 279 280 281 282 282 281 280 279 278 277 276 276 275 275 275 275 276 277 277 277 277 278 278 277 276 276 275 273 273 272 271 271 270 269 268 267 266 266 266 265 265 264 263 262 262 261 262 261 261 261 261 260
272 273 274 275 277 279 281 283 284 285 285 285 285 285 285 286 286 286 286 286 285 284 283 282 281 280 279 279 279 279 279 279 279 279 279 280 282 282 282 280 279 279 278 277 276 276 276 276 276 277 278 278 278 278 278 277 276 276 275 274 273 272 271 271 270 269 268 267 266 266 266 265 264 264 263 262 262 262 262 262 262 261 261 261 262
272 272 273 274 275 277 281 283 285 285 285 285 285 285 285 286 286 286 286 285 284 283 282 281 280 279 279 278 278 278 278 278 279 279 279 280 281 282 282 281 280 279 279 278 277 277 277 277 276 277 278 278 278 278 277 276 275 274 274 273 272 271 271 270 269 268 267 266 265 265 266 265 264 263 263 263 263 263 263 264 264 263 262 262 263
271 272 272 273 274 277 281 284 285 285 285 285 285 285 286 286 286 286 286 284 283 282 281 280 279 279 278 278 278 277 277 277 278 278 279 279 279 281 282 281 280 280 279 278 278 277 277 277 277 278 279 278 277 276 275 274 274 273 272 272 271 271 270 269 268 267 266 266 265 265 265 265 264 264 264 264 264 264 264 264 264 263 263 262 262
270 271 271 273 274 277 282 285 285 285 286 285 285 286 286 286 286 286 285 283 283 281 280 279 279 278 278 278 277 277 277 277 277 277 278 279 279 280 281 281 280 280 279 278 277 277 277 277 277 277 277 276 275 275 274 273 272 272 271 271 270 269 268 267 267 266 266 265 265 265 265 265 265 266 265 265 264 264 264 263 262 262 262 260 260
270 270 271 273 275 278 283 285 285 285 285 285 285 285 286 286 286 285 284 283 281 281 280 279 278 278 278 278 277 277 276 276 276 277 277 278 279 279 280 281 280 279 278 277 276 277 277 276 275 275 274 274 273 273 272 271 271 270 270 269 268 267 267 266 266 265 265 265 265 265 265 266 266 267 267 266 265 264 264 263 261 260 260 259 259
269 270 271 273 275 278 281 283 283 284 284 284 285 285 286 286 285 284 283 282 281 281 280 279 279 279 278 277 277 276 276 276 277 277 277 278 278 279 279 280 280 278 277 277 276 275 274 273 272 272 271 271 271 270 269 269 269 268 268 267 266 266 266 266 265 265 265 265 265 265 266 267 267 267 267 267 265 264 264 263 261 259 258 258 259
268 269 271 273 274 276 278 280 282 283 284 284 285 285 286 285 285 284 282 281 280 281 281 281 280 280 279 278 278 277 278 277 277 277 277 278 278 278 279 280 279 278 277 276 275 274 272 271 270 269 268 268 268 267 268 268 267 266 266 265 265 265 265 264 264 264 265 265 265 265 266 267 267 267 267 266 266 265 264 262 260 258 258 258 258
268 269 270 271 273 274 275 277 279 281 283 284 285 285 285 285 284 283 282 280 279 280 280 281 281 280 280 279 279 278 278 278 277 277 278 278 279 279 279 279 278 277 276 276 274 272 271 270 268 267 267 267 267 267 267 267 266 266 265 264 264 264 264 264 264 264 265 265 265 266 267 267 267 266 266 265 265 265 265 262 259 258 257 258 258
267 268 269 271 272 273 274 275 276 278 281 283 285 285 285 284 283 282 281 280 279 279 279 279 279 280 280 280 279 279 278 278 278 278 278 278 279 279 279 279 278 277 276 275 273 271 270 269 268 267 267 266 266 266 267 266 266 265 265 264 264 264 264 264 264 264 264 264 265 266 267 267 266 266 265 265 265 265 264 261 259 257 257 258 258
266 268 269 270 271 272 272 273 274 275 278 281 284 285 284 283 282 281 280 279 278 278 277 277 277 278 279 280 280 279 279 278 278 279 279 279 279 279 279 279 278 276 276 274 271 270 270 269 268 267 266 266 266 266 266 266 266 266 265 265 265 264 264 264 264 264 264 265 266 267 267 266 266 266 265 265 265 264 262 260 258 258 257 258 258
266 267 268 269 270 270 271 271 272 274 276 279 283 284 283 282 280 279 279 278 277 277 276 276 276 276 277 279 280 280 279 279 279 279 279 279 279 279 279 279 278 276 275 273 271 270 269 268 267 266 266 267 267 267 266 266 266 266 265 265 264 264 264 264 264 264 264 265 266 267 266 266 266 266 265 265 265 263 261 259 258 257 257 257 257
266 267 268 268 269 269 270 270 271 273 275 277 280 282 283 282 280 278 277 277 276 275 274 275 275 275 275 277 279 280 280 279 279 279 280 279 279 279 279 278 277 275 273 272 271 270 269 268 267 266 267 268 268 267 267 266 266 265 265 264 264 264 264 264 264 263 264 265 266 266 266 266 266 265 264 265 265 263 260 258 258 257 256 256 257
265 266 267 267 268 268 269 270 271 272 274 276 278 281 282 281 279 278 277 275 274 274 273 273 274 275 275 276 279 280 280 280 280 280 280 280 279 279 279 277 275 273 272 271 270 270 269 268 268 268 269 270 269 267 267 266 266 266 265 264 264 264 264 263 263 264 264 265 266 266 266 266 265 265 264 264 264 262 260 259 258 258 257 256 256
265 265 266 267 267 268 269 269 270 272 273 275 278 280 282 281 279 277 276 275 274 274 273 272 273 274 275 276 279 280 280 280 280 280 280 280 280 279 278 276 273 272 271 270 269 269 268 267 269 271 271 271 269 267 267 267 266 266 265 265 265 264 264 263 263 264 265 265 265 265 265 265 265 265 264 264 264 263 261 260 259 258 258 257 256
265 265 266 267 268 268 269 269 270 271 273 274 277 279 280 280 279 277 275 274 274 273 273 272 272 273 274 276 279 280 280 280 280 280 280 280 279 278 276 274 272 271 270 269 269 269 268 269 271 273 272 270 269 268 267 267 266 265 265 265 264 264 263 263 263 264 265 265 265 265 265 265 265 264 264 264 264 263 262 261 259 259 259 258 257
265 265 266 267 268 268 268 269 270 271 272 274 275 277 279 280 279 277 275 274 273 273 272 272 272 272 274 276 279 280 280 279 279 279 279 278 276 276 275 273 272 271 270 269 268 269 269 271 272 273 272 270 269 268 267 267 266 266 265 264 264 263 263 263 264 264 265 265 265 265 264 264 264 264 264 264 264 263 262 261 260 259 258 258 257
265 265 266 267 268 268 268 268 269 270 272 273 274 275 278 279 279 277 275 274 273 273 272 272 272 273 275 277 279 279 279 278 278 277 276 275 274 274 274 273 272 272 272 271 270 271 271 272 272 272 272 270 268 268 267 267 266 266 265 264 264 264 264 264 264 265 265 265 265 265 264 264 264 264 263 263 263 263 262 262 261 260 259 258 258
265 266 266 267 268 268 268 268 269 270 271 272 273 275 277 279 278 277 275 274 273 273 272 272 272 274 275 277 278 279 278 277 276 276 275 274 273 273 273 273 273 273 273 273 273 273 273 273 272 272 271 270 268 268 267 267 266 266 265 265 265 265 264 264 264 265 265 265 264 264 264 264 263 263 263 263 262 262 262 262 261 261 260 260 259
266 266 267 267 267 268 268 268 269 269 270 271 273 274 276 277 278 277 275 274 273 273 272 272 273 274 276 277 278 278 277 277 276 275 274 273 273 273 273 273 274 274 274 274 274 274 274 273 273 272 271 270 269 268 268 267 266 266 265 265 265 265 265 265 265 264 264 264 264 264 264 264 264 263 263 262 262 262 262 262 261 261 261 260 260
266 267 267 267 267 267 268 268 269 269 270 272 273 274 275 276 277 277 275 273 273 272 272 272 273 274 275 277 277 277 276 276 275 274 274 273 273 273 273 273 274 274 275 275 274 274 274 273 272 272 271 270 269 269 268 268 267 267 266 266 266 266 266 266 265 265 264 264 264 264 264 264 264 263 263 263 263 262 262 262 262 261 261 260 260
267 267 267 267 267 267 268 268 269 270 271 272 273 274 276 277 277 277 275 274 273 272 272 272 272 274 275 275 276 276 275 275 274 274 273 273 273 273 273 273 274 274 274 274 274 274 274 273 272 271 270 269 269 269 269 268 268 268 267 267 266 266 266 266 266 265 265 264 264 264 264 264 264 263 263 263 263 262 262 262 262 262 261 260 260
267 267 267 267 267 268 268 269 270 271 272 273 273 275 277 278 277 276 275 274 272 272 272 272 272 273 274 274 274 274 274 273 273 272 272 272 272 272 272 273 274 274 274 274 274 273 273 272 271 270 269 269 269 269 268 268 268 268 268 268 268 267 267 266 266 265 265 264 264 264 264 264 264 264 264 263 263 263 262 262 262 261 261 261 260
267 267 267 267 268 268 269 270 271 272 272 273 274 276 277 278 276 275 274 273 272 272 271 271 272 273 274 273 273 273 273 272 272 272 271 271 271 272 273 273 274 274 274 273 273 273 272 271 270 270 269 269 269 268 268 268 268 267 267 267 267 267 266 265 265 265 265 264 264 264 264 264 264 264 264 264 263 263 262 262 262 261 261 260 260
267 267 267 268 268 269 270 271 272 272 273 274 275 277 278 277 275 274 274 273 272 272 271 271 272 273 273 273 273 272 272 272 271 271 271 271 272 273 274 274 274 273 273 272 272 272 271 270 270 270 269 269 269 268 268 268 267 267 266 266 265 265 265 265 265 264 264 264 264 264 264 264 264 264 264 264 263 263 263 262 262 261 260 260 260
267 267 268 268 269 270 270 271 272 273 274 275 276 277 276 275 274 273 273 272 272 271 271 271 272 272 272 272 272 272 272 271 271 270 271 271 272 273 274 274 273 273 272 272 271 271 270 270 270 269 269 269 269 269 268 268 267 267 266 265 265 265 265 265 265 264 264 264 264 264 264 264 264 264 264 263 263 263 262 262 262 261 261 260 259
267 268 268 269 269 270 271 271 272 272 274 276 277 276 274 274 273 273 272 272 271 271 271 271 271 272 272 271 271 271 271 271 270 270 270 271 272 273 273 273 272 272 271 271 271 270 270 269 269 269 269 269 269 269 268 268 267 267 266 266 266 265 265 265 265 265 264 264 264 264 264 264 263 263 263 263 263 262 262 262 261 261 260 260 259
267 268 268 269 270 270 271 271 271 272 273 275 276 275 274 273 273 272 272 272 271 271 271 271 271 271 271 271 271 270 270 270 269 269 270 271 272 273 273 272 271 271 271 270 270 269 269 269 269 269 269 269 269 268 268 268 267 267 266 266 266 265 265 265 264 264 264 264 264 264 264 263 263 263 263 262 262 262 261 261 261 260 260 260 259
267 268 268 269 269 270 270 270 271 271 273 274 275 275 274 273 272 272 272 272 271 271 271 271 271 271 271 271 270 270 269 269 269 269 270 271 272 273 272 272 271 271 270 270 269 269 269 269 268 268 268 268 268 268 267 267 267 267 266 266 266 265 265 265 264 264 264 264 264 264 264 263 263 263 263 262 262 261 261 260 260 260 259 259 259
Wind_Speed
30 30 31 30 30 30 30 30 29 29 30 30 30 30 30 29 29 29 30 31 32 31 32 32 31 29 26 24 25 28 31 32 33 33 33 35 36 37 37 37 38 39 39 39 39 39 39 38 37 36 34 34 35 34 33 32 31 30 29 26 23 24 23 18 11 9 10 12 13 13 13 13 14 16 17 18 18 18 20 22 25 27 28 29 31
31 31 31 31 31 31 31 31 30 29 29 29 30 30 30 30 29 29 30 31 32 32 32 32 32 30 27 26 25 27 29 31 33 33 34 35 35 36 35 35 37 38 38 38 39 38 37 37 36 35 34 34 35 35 33 33 32 30 29 28 24 24 26 23 15 10 10 13 14 14 13 14 15 15 15 16 17 19 21 23 24 25 26 27 29
32 32 31 30 30 31 31 31 31 31 30 30 30 30 30 30 30 29 30 32 32 32 32 32 32 30 28 27 26 27 28 30 32 34 35 36 36 36 36 36 38 39 39 40 40 38 36 36 35 34 33 33 34 35 33 33 33 32 32 32 28 26 28 27 20 13 12 14 14 14 14 14 14 14 14 17 19 21 23 23 23 24 25 27 28
33 32 31 31 30 30 30 30 30 31 31 32 32 32 32 31 31 31 31 32 32 32 31 31 30 28 27 27 27 28 29 30 31 33 35 36 36 37 37 37 39 39 40 40 39 38 37 36 35 33 33 33 34 34 33 33 33 33 33 32 30 29 30 29 25 19 15 15 16 16 15 14 15 15 15 17 19 21 22 22 22 23 25 27 28
32 32 32 32 31 30 30 30 30 30 32 33 34 34 34 33 33 32 31 32 31 31 30 29 27 26 26 27 27 28 29 30 31 33 35 36 36 37 37 37 37 38 38 38 39 40 38 37 36 35 34 35 35 35 34 34 34 33 32 29 29 30 29 29 27 22 19 19 19 18 18 17 18 18 17 17 17 19 21 22 22 24 25 25 24
30 30 31 31 31 31 32 32 32 32 33 33 34 34 33 33 33 33 32 32 31 30 29 27 26 25 26 26 26 27 29 30 31 33 35 36 35 35 35 35 35 36 37 37 37 39 40 38 37 37 38 37 37 37 35 35 35 33 32 31 30 30 29 27 24 21 19 21 21 19 19 19 19 18 16 15 16 20 23 23 22 22 22 21 21
28 29 29 30 30 31 32 33 33 33 34 34 33 33 33 33 33 32 32 31 30 30 29 28 26 24 25 25 26 27 28 29 31 32 34 34 34 33 33 33 32 33 34 34 34 36 37 37 36 38 39 38 38 36 34 34 34 33 33 33 32 31 28 25 22 19 19 20 20 18 19 19 19 18 16 14 16 20 23 23 21 19 19 21 22
27 28 28 28 28 30 32 32 32 34 34 33 33 33 34 34 33 32 30 29 29 29 29 29 27 24 23 24 25 27 27 28 30 31 32 33 33 33 33 32 31 30 30 31 32 33 34 35 36 37 38 38 38 36 35 34 33 32 33 32 30 29 27 22 19 18 18 18 18 17 17 19 18 16 15 15 16 18 19 19 20 21 21 23 24
27 28 28 27 28 30 31 31 32 33 33 32 32 33 33 33 33 32 30 29 29 29 29 29 27 23 22 23 24 25 26 28 30 31 31 32 32 32 32 32 30 28 27 27 29 31 32 33 34 35 36 38 37 35 34 34 33 33 33 32 29 27 25 21 18 17 16 16 17 17 17 18 17 16 16 17 17 19 18 19 22 24 23 25 25
29 30 29 29 29 30 30 31 32 31 29 30 31 31 32 32 31 31 30 29 28 27 28 28 26 23 22 22 24 25 26 28 30 31 31 32 32 31 31 32 30 28 27 27 27 29 30 31 33 34 35 35 35 34 33 32 32 32 32 32 31 29 28 22 16 14 14 14 14 15 15 15 16 17 19 20 19 18 17 19 23 24 23 25 26
32 33 33 33 32 31 30 31 31 29 28 28 29 31 31 30 29 29 29 28 27 26 26 26 26 25 23 23 25 25 26 29 30 29 29 30 32 31 30 31 30 29 28 27 27 28 28 29 31 32 32 32 32 31 30 30 30 30 30 31 30 30 31 26 17 13 13 14 14 16 15 15 16 17 18 16 13 13 16 19 23 24 23 20 19
33 34 35 35 34 32 31 31 29 28 28 28 29 30 29 28 27 27 27 27 26 25 25 26 27 26 24 23 24 25 27 29 28 28 28 29 31 31 30 30 29 29 29 27 27 29 29 28 28 30 31 31 30 28 27 26 26 26 27 27 27 28 30 29 24 19 18 17 16 16 16 15 15 14 13 12 13 15 20 23 24 24 23 20 21
34 35 35 35 33 32 32 31 29 28 28 28 28 28 27 26 26 26 25 25 24 24 25 26 27 26 24 23 24 25 27 27 26 27 28 29 30 29 29 29 29 29 29 28 28 29 30 29 27 27 28 28 27 27 26 25 23 23 23 23 23 24 25 26 26 25 25 24 19 15 15 14 11 10 12 15 19 20 21 24 23 19 19 20 23
35 35 34 32 31 31 31 31 29 28 28 27 27 26 25 25 25 25 24 24 23 23 24 25 26 26 25 24 24 25 26 26 25 26 28 29 29 29 29 29 29 29 29 29 30 30 31 31 28 27 26 26 26 26 27 26 24 23 23 23 22 23 23 23 24 24 24 22 18 14 14 15 15 17 20 22 23 22 20 20 19 17 19 22 26
37 35 30 28 29 29 30 30 28 27 27 26 25 25 24 25 25 24 22 22 22 21 22 24 25 25 25 24 24 24 24 24 23 26 27 27 28 29 28 27 27 28 29 29 30 30 30 31 29 27 27 27 27 27 27 28 26 25 24 22 22 23 24 24 23 22 22 21 20 19 21 23 23 22 21 20 20 21 21 21 23 24 27 29 30
33 29 25 26 29 30 31 31 27 25 25 24 23 23 23 24 24 23 21 21 21 21 22 24 23 24 24 24 23 24 24 22 22 25 26 26 27 27 27 27 26 27 27 28 29 29 29 29 28 26 27 28 28 27 27 28 27 25 24 23 21 22 24 24 23 22 21 21 22 22 21 20 18 16 16 17 19 22 24 28 33 32 26 22 21
27 26 27 30 31 32 33 30 24 23 24 22 22 23 23 22 22 21 20 20 19 20 22 23 24 24 25 24 23 23 23 21 21 23 24 25 26 24 25 28 27 27 26 27 28 27 27 27 27 26 26 28 28 25 24 25 25 25 25 23 22 22 24 23 22 20 18 18 19 18 17 17 18 20 23 24 26 28 26 26 28 25 16 11 12
28 29 30 31 31 33 34 29 23 23 24 23 22 23 22 21 20 19 18 19 20 21 22 23 23 24 24 25 24 22 22 21 20 21 22 24 25 23 24 27 26 24 25 25 26 27 26 25 25 25 25 27 28 25 22 24 25 25 24 22 20 21 22 21 18 17 17 18 20 21 21 22 24 27 29 29 31 30 25 23 23 18 12 12 12
30 30 31 32 32 33 32 30 27 25 24 23 23 23 22 20 20 19 18 19 19 20 21 21 21 21 22 25 24 21 20 20 19 19 21 23 24 22 23 25 23 22 23 23 23 24 23 21 22 24 26 27 27 25 23 23 24 24 24 21 20 21 21 18 16 17 18 19 20 21 22 24 25 27 28 28 29 27 24 25 23 18 14 14 13
31 32 32 32 31 31 30 30 30 27 25 24 23 22 21 20 20 20 19 19 19 19 20 20 20 20 21 22 22 20 19 18 17 18 20 23 24 22 23 24 22 22 22 22 22 22 21 21 21 23 26 26 25 23 23 24 24 23 23 22 20 20 18 16 16 16 16 17 18 20 22 24 24 24 24 23 22 21 20 20 20 19 16 14 12
33 34 34 32 31 30 30 30 29 27 25 24 22 21 20 20 20 21 21 20 20 20 20 18 18 19 19 20 19 17 17 17 17 17 19 21 23 23 24 24 23 23 23 22 22 22 22 22 23 23 24 24 23 22 23 24 24 24 23 20 18 17 16 15 14 13 13 15 17 20 22 22 21 19 18 18 16 16 16 16 17 19 19 18 15
35 36 35 32 30 29 29 29 27 26 24 21 19 20 21 21 21 22 22 21 21 19 17 16 16 17 16 17 17 16 15 16 16 16 17 19 22 23 24 25 25 25 24 21 21 22 23 24 25 24 24 23 23 23 23 23 24 24 21 17 14 15 14 12 11 11 13 15 17 20 19 18 17 15 14 14 13 11 12 12 13 17 20 22 23
37 35 33 30 29 28 28 27 26 23 22 20 18 19 21 22 22 22 22 21 19 16 14 13 14 14 13 13 14 14 14 14 14 15 15 17 19 20 22 25 26 27 26 23 22 23 23 25 26 25 24 23 23 23 22 21 22 21 18 16 15 14 12 10 10 11 13 14 15 17 15 13 14 14 14 14 14 12 12 12 12 14 17 21 24
36 33 32 31 30 28 27 26 23 21 20 19 18 19 21 21 21 22 21 18 15 13 12 11 11 11 9 9 11 12 13 14 14 14 15 16 17 18 21 25 27 27 26 25 24 24 24 25 27 25 23 23 23 22 22 22 20 18 18 18 17 13 10 10 10 11 11 12 13 13 12 11 12 14 14 14 14 13 13 13 12 11 14 17 19
35 33 32 31 30 29 26 23 21 19 19 18 18 19 21 20 20 20 18 15 13 11 10 9 7 7 6 6 8 10 12 14 14 13 13 13 14 16 19 25 27 26 25 24 24 26 26 26 26 25 23 23 22 22 23 21 20 20 20 18 15 11 10 10 9 9 10 10 10 9 9 9 10 11 12 13 13 14 15 15 13 11 10 14 17
34 33 32 33 33 30 24 20 18 18 18 18 18 20 20 19 18 17 15 14 12 10 7 7 5 4 5 6 7 9 11 13 14 14 13 12 12 13 17 25 27 25 24 24 25 26 27 26 25 24 22 23 25 26 24 22 21 20 18 15 12 10 10 9 8 9 9 8 7 7 8 8 9 9 10 11 13 14 16 17 17 15 14 16 19
32 32 35 37 36 29 21 18 17 17 16 17 19 20 19 18 17 15 13 13 12 8 5 5 5 4 5 5 6 9 11 12 13 14 14 13 12 12 16 24 28 25 23 24 25 25 26 25 23 22 23 26 27 26 24 22 20 18 15 12 11 10 8 8 8 8 6 4 4 5 6 7 8 9 10 11 14 15 15 16 17 18 18 17 17
30 31 34 34 31 25 20 18 18 16 16 17 19 18 18 17 16 15 13 12 13 10 5 4 4 5 5 5 6 7 10 13 15 15 16 17 16 14 15 21 27 25 23 25 25 25 25 25 25 26 28 28 27 25 23 21 17 14 12 10 9 8 8 8 8 6 3 2 3 4 5 6 8 10 11 12 14 15 15 16 16 17 18 15 11
30 29 30 27 25 25 23 21 19 17 17 18 18 17 17 16 14 15 14 12 12 12 8 6 6 6 6 7 7 6 8 13 16 17 18 19 19 17 16 20 25 25 24 27 28 27 27 27 26 26 26 26 25 23 20 19 16 12 11 10 8 8 9 8 6 4 2 1 1 3 5 7 8 11 13 13 14 16 17 17 17 17 17 13 9
28 27 26 24 24 25 24 23 22 20 18 18 17 16 16 15 12 11 11 10 10 9 8 8 8 7 7 8 9 9 10 11 12 14 16 17 18 17 16 20 26 28 28 31 31 28 25 23 21 21 22 23 24 22 20 18 16 14 12 11 9 9 9 7 5 4 3 1 1 2 4 7 9 11 13 15 16 17 18 17 17 16 16 14 11
26 25 25 25 25 24 23 23 24 22 20 19 15 12 13 15 13 9 7 8 9 7 7 7 6 5 7 9 9 9 10 8 6 11 15 16 17 17 16 21 27 30 32 33 29 24 21 20 18 18 19 20 22 22 21 20 17 16 15 13 12 11 9 8 6 5 3 1 0 2 5 7 10 12 13 14 16 18 19 19 18 16 15 14 11
26 24 24 25 25 24 23 23 23 22 21 20 17 13 11 11 11 10 9 9 8 6 6 7 7 4 5 8 9 9 9 8 8 11 15 16 18 19 19 23 28 31 34 32 25 20 20 21 20 18 18 19 21 22 22 21 19 18 17 16 15 13 10 9 8 6 4 2 1 3 5 7 9 11 12 14 16 18 20 21 21 18 17 17 16
27 25 24 24 25 24 22 22 22 22 21 20 18 16 12 8 7 9 12 12 9 6 6 8 6 4 3 5 9 9 8 9 10 12 14 17 19 20 21 25 29 32 32 29 22 18 19 21 21 20 18 19 22 23 22 21 20 18 17 16 15 14 12 10 8 6 5 3 2 4 5 7 8 9 11 13 15 17 18 19 21 21 20 19 19
27 25 23 24 24 23 22 22 21 21 21 20 19 18 16 12 8 8 10 10 9 8 10 12 9 5 3 2 6 8 9 10 12 13 15 17 19 20 22 25 28 29 28 25 22 19 18 18 18 18 18 21 23 24 22 21 20 18 17 15 14 13 13 11 9 7 5 4 3 3 4 6 8 9 11 13 15 16 17 18 19 20 20 18 18
27 25 23 23 23 22 21 22 21 20 20 20 19 19 18 15 11 9 7 6 6 7 12 15 13 8 4 2 3 7 9 10 11 14 15 17 19 22 22 23 24 23 21 21 21 20 21 20 19 18 20 23 24 23 23 22 21 19 18 17 16 15 14 11 9 8 6 5 4 3 4 6 8 9 11 13 15 16 17 18 18 17 18 19 18
27 25 23 23 23 23 22 21 20 20 20 20 19 20 19 16 13 10 7 6 5 5 8 13 14 10 4 1 2 6 9 10 11 14 16 18 21 22 19 19 20 18 16 16 17 18 19 21 21 22 23 23 23 23 23 22 21 19 18 18 17 16 14 12 10 9 7 5 4 4 4 6 7 9 10 12 14 14 15 16 17 15 17 18 17
26 24 24 25 25 25 24 21 19 20 20 19 18 18 18 18 14 10 7 6 6 6 7 10 12 11 7 3 3 7 9 9 10 13 15 18 20 20 17 18 19 17 14 15 17 17 17 18 21 24 24 24 23 23 23 22 21 19 18 18 17 15 14 12 10 8 7 5 4 3 4 5 7 9 10 11 14 14 14 16 17 16 17 18 18
26 25 25 26 26 25 24 22 20 19 18 18 17 16 17 18 15 11 7 6 7 7 8 10 11 10 9 7 4 8 10 9 10 12 14 15 16 18 19 20 19 17 16 16 18 18 18 19 22 24 24 23 23 24 23 22 21 20 19 18 17 15 14 13 11 9 7 5 4 3 4 5 7 8 10 11 13 14 14 15 16 17 18 19 19
26 25 26 26 25 23 22 21 20 18 17 16 16 16 16 16 14 11 8 6 7 6 7 9 9 9 10 9 5 11 11 9 9 10 12 13 16 19 22 21 19 18 18 18 17 18 21 23 23 22 22 23 23 23 23 22 21 21 20 19 19 17 16 14 12 9 7 5 3 4 4 5 6 8 9 11 13 14 14 15 15 16 17 18 18
26 27 26 25 23 22 21 19 17 16 16 16 16 16 15 13 13 12 7 4 5 4 5 7 7 7 11 10 5 12 12 10 10 12 14 16 17 18 20 21 21 21 22 21 20 20 22 24 23 21 22 23 22 23 23 21 21 21 21 20 20 18 16 14 11 9 7 6 4 3 4 5 6 7 8 10 12 13 13 14 15 15 15 16 17
28 28 26 23 22 22 20 18 16 15 16 16 16 15 14 14 14 12 6 3 4 3 4 5 5 5 9 9 5 12 14 12 12 13 15 16 16 17 19 21 23 23 23 22 22 21 21 22 22 22 22 23 23 23 23 21 21 22 22 20 19 17 15 14 12 9 8 6 4 3 4 5 6 7 8 10 11 11 12 13 14 15 16 16 17
29 29 26 23 21 19 18 18 18 18 18 17 15 14 15 16 15 11 5 3 3 3 4 4 3 4 7 7 7 11 13 13 13 14 15 15 16 17 20 21 22 23 22 22 22 20 20 21 22 22 22 23 24 23 23 22 22 22 21 20 18 17 16 14 12 10 8 6 5 4 3 4 5 6 8 9 9 10 12 13 14 15 16 18 18
28 27 25 23 22 19 19 20 20 18 17 16 16 17 18 17 14 9 4 2 3 3 3 4 4 4 7 8 10 12 12 13 14 15 16 16 16 18 19 20 21 22 21 20 20 19 18 19 21 22 22 22 22 22 21 21 22 21 20 19 18 16 15 14 12 11 9 7 5 4 3 4 5 6 7 7 9 11 12 13 15 16 16 18 19
26 26 26 26 25 24 24 22 20 18 18 19 20 20 19 15 11 7 3 1 2 3 4 4 4 5 8 10 11 12 13 13 14 14 15 16 17 18 19 20 20 20 20 19 19 18 17 18 20 22 21 21 21 20 18 19 19 18 18 17 17 16 14 12 11 10 8 6 5 4 3 3 4 4 6 7 8 10 12 13 15 16 16 18 19
25 26 27 28 28 28 27 24 21 21 22 21 19 17 16 12 8 4 2 1 3 4 5 5 5 7 8 10 11 12 13 14 14 14 14 16 17 17 17 17 17 16 16 17 18 17 17 17 20 22 22 22 21 19 17 16 16 14 13 13 12 12 11 10 9 8 7 6 4 4 3 3 3 4 5 7 8 10 11 13 14 15 16 17 18
26 26 28 30 29 27 26 25 23 22 22 20 16 14 13 10 5 2 0 1 3 5 6 6 6 7 9 10 12 13 14 14 14 14 15 16 17 17 16 15 15 15 15 16 17 16 16 17 19 22 23 22 20 18 16 15 14 13 12 10 8 8 8 9 8 7 7 6 4 3 3 2 3 4 5 6 8 9 11 12 13 14 15 16 17
26 27 29 31 29 26 26 26 25 22 22 20 17 13 10 5 1 3 2 3 4 6 6 6 7 8 10 11 12 13 15 15 15 15 15 16 17 17 17 16 15 16 16 16 16 16 15 16 19 21 22 21 20 18 17 16 15 14 13 11 10 9 9 9 8 7 6 6 4 3 2 1 2 3 4 5 6 7 10 11 12 13 14 14 15
27 27 29 30 28 25 25 26 23 21 20 19 15 10 5 3 4 5 5 5 6 7 7 6 7 8 10 12 13 14 15 15 15 15 16 17 18 19 18 17 16 16 15 15 16 16 15 17 19 20 21 21 19 18 18 17 16 16 14 13 12 11 9 9 8 7 6 5 4 2 1 1 1 2 2 4 5 7 9 11 12 13 14 14 15
28 28 30 30 28 25 24 22 20 20 21 19 15 12 8 7 7 7 7 7 7 7 7 7 7 9 11 13 14 15 15 15 15 15 16 18 19 19 18 17 16 15 15 15 16 16 16 18 19 20 20 20 18 17 17 16 16 16 15 13 12 11 10 9 8 6 5 4 3 2 1 0 1 1 2 4 5 7 9 10 11 13 14 14 15
27 29 30 28 25 22 21 20 21 23 22 17 14 13 11 8 8 7 8 8 8 8 8 7 8 10 12 14 15 16 16 16 16 16 17 19 20 19 18 16 15 15 15 16 16 17 17 18 19 20 20 19 17 15 15 15 15 15 14 12 12 11 10 9 7 6 5 4 2 1 1 1 1 2 3 5 6 7 9 10 11 13 14 14 15
27 29 27 23 21 20 19 20 23 24 21 16 15 15 12 9 8 7 8 8 8 8 8 8 9 10 12 14 16 16 16 16 17 17 18 19 20 19 17 16 15 15 15 16 17 18 18 18 19 20 19 18 16 14 13 13 13 13 12 11 11 11 9 8 7 5 4 3 2 1 1 1 2 3 4 6 7 8 10 11 12 12 13 14 15
Wind_Direction
300 299 299 298 296 296 298 298 298 298 299 301 300 298 297 295 293 293 293 294 294 293 293 292 289 286 284 277 267 258 252 247 241 233 228 226 225 225 223 220 218 215 211 209 209 209 209 208 208 210 212 213 213 215 216 216 217 217 217 215 212 211 211 214 230 242 234 234 241 245 246 249 255 259 263 269 272 274 277 280 286 290 292 292 294
301 301 300 298 297 297 299 299 298 297 297 298 298 296 295 294 293 292 291 291 291 289 288 290 289 285 281 275 266 256 250 246 241 235 229 225 223 223 221 217 214 211 206 206 206 207 208 207 207 210 211 212 212 213 213 213 214 214 214 214 212 211 213 216 225 237 242 243 244 247 247 247 253 254 255 263 269 274 278 281 285 287 288 289 291
303 302 300 297 295 295 296 297 297 297 298 298 298 296 294 293 292 290 289 289 288 286 285 287 286 282 278 274 265 255 248 244 240 236 230 225 222 220 218 215 212 208 205 205 205 205 205 205 206 206 206 208 210 212 213 213 214 214 215 216 215 215 217 220 224 232 243 247 246 249 250 249 255 255 254 262 270 275 278 281 283 284 286 289 290
305 304 301 298 296 294 293 293 294 295 297 297 298 297 295 293 293 291 290 289 287 284 282 283 282 276 272 270 265 255 246 240 236 235 231 227 223 219 216 214 212 209 206 205 204 202 203 204 204 203 202 204 206 209 210 212 214 214 216 217 216 219 221 222 225 230 240 249 251 252 253 255 261 263 263 268 272 273 276 280 281 282 285 288 288
306 306 304 301 299 297 296 295 294 294 294 295 295 295 294 293 293 291 290 288 286 283 279 278 276 271 268 267 264 256 247 238 233 233 231 228 224 220 216 213 211 209 208 206 204 204 204 203 203 201 200 201 203 206 209 211 212 213 214 215 217 219 222 224 226 229 236 248 255 259 261 263 267 268 266 267 272 278 280 282 284 287 287 286 284
306 306 305 302 300 299 298 297 295 294 292 292 291 290 290 290 290 291 290 289 287 284 279 275 272 270 268 266 263 258 250 240 232 231 231 227 223 220 217 213 211 210 209 208 208 208 207 205 204 203 201 200 201 204 208 209 211 213 214 217 219 220 221 223 225 227 235 246 255 261 264 267 270 270 264 259 270 283 286 286 287 287 286 285 284
307 306 305 302 299 296 295 293 292 290 288 288 288 287 286 286 286 288 290 289 288 286 281 275 272 270 267 266 263 259 253 242 234 230 228 225 220 217 215 214 213 211 210 210 210 210 209 207 206 206 204 203 202 203 205 206 209 213 216 218 221 221 221 222 224 227 235 244 253 259 263 268 270 268 265 263 269 280 286 288 288 285 283 285 287
310 307 304 302 299 296 294 292 290 288 286 286 286 286 285 285 286 288 289 288 288 288 284 279 275 271 268 267 264 260 252 242 234 228 225 222 218 216 215 213 212 210 209 211 212 211 210 209 209 208 207 206 206 205 204 205 206 210 215 218 218 218 218 218 221 227 234 241 249 256 264 270 269 266 268 269 273 280 285 285 287 288 289 289 288
311 308 305 301 299 297 295 292 290 287 284 284 284 283 283 284 286 288 289 289 289 290 287 280 275 270 268 267 264 258 250 242 235 228 223 219 216 216 214 212 210 208 207 209 211 212 211 210 210 210 209 209 210 209 209 210 209 210 214 215 214 215 216 216 218 222 229 238 247 255 262 266 267 269 271 273 279 286 286 284 286 289 292 292 289
312 310 307 303 300 297 294 292 290 286 284 284 284 282 281 282 284 286 288 289 289 290 288 281 275 272 270 268 265 257 249 245 238 229 223 218 216 214 213 212 209 207 205 205 208 210 210 210 210 210 211 211 211 212 212 214 215 217 219 217 214 213 213 213 215 217 225 234 242 251 257 260 262 267 272 276 281 282 281 284 288 291 295 295 291
312 310 308 307 304 298 293 291 289 287 286 285 282 280 280 281 282 284 286 288 288 287 285 281 277 275 271 269 266 257 249 247 240 230 223 218 216 213 212 211 209 207 206 205 205 207 206 208 209 209 210 210 210 210 211 213 216 220 223 223 223 221 217 215 212 211 220 233 242 246 249 254 259 263 269 276 278 275 278 284 287 290 294 294 293
310 308 308 310 308 300 294 289 286 285 284 283 281 280 280 281 282 283 285 288 288 286 282 280 278 277 273 268 264 257 253 250 241 230 224 218 215 213 210 208 206 206 207 206 205 205 203 203 205 206 207 207 207 206 205 209 213 215 219 222 225 227 226 225 224 221 224 231 238 240 242 250 257 257 262 277 282 282 284 285 284 284 284 283 285
308 305 306 309 308 302 296 289 284 283 283 283 283 282 282 283 283 284 286 286 285 284 282 279 276 275 274 270 266 262 257 251 239 227 224 220 214 209 206 205 204 205 206 206 205 204 201 200 200 204 205 203 203 203 201 203 206 208 212 216 218 221 225 227 229 232 234 234 236 239 243 250 260 261 271 285 286 283 284 284 282 277 274 274 279
306 304 304 306 306 303 298 289 282 281 282 282 283 283 284 285 284 285 287 286 282 281 282 280 275 273 274 272 270 267 261 251 236 225 224 222 214 207 202 201 203 204 205 205 204 203 201 199 197 199 200 197 197 199 200 200 202 205 209 212 215 217 220 223 226 232 235 235 237 246 255 263 272 277 282 286 284 281 280 280 280 278 275 278 280
303 302 301 302 304 305 302 293 282 279 281 281 282 284 284 285 285 286 288 287 285 284 285 283 275 270 271 272 269 266 261 251 234 224 223 220 215 208 199 196 199 201 202 205 204 203 202 200 198 196 195 194 194 197 200 201 201 204 207 209 213 216 219 223 227 232 238 244 255 269 277 281 284 286 287 288 284 280 279 280 283 285 286 287 285
301 302 305 307 308 308 305 296 283 279 283 283 282 284 284 284 286 289 290 290 290 289 288 285 277 271 273 273 269 265 261 250 233 225 223 217 215 208 194 190 195 196 198 203 203 202 202 199 198 197 195 194 194 196 202 203 201 203 207 212 218 221 225 229 234 241 248 256 266 273 277 279 279 278 277 279 282 285 289 288 287 288 290 288 284
309 314 315 312 310 309 307 300 287 284 288 286 283 284 284 285 288 291 291 291 291 288 285 283 277 274 274 273 268 264 261 252 235 228 223 215 213 207 189 184 190 192 194 200 200 201 201 200 199 198 196 197 197 194 198 202 202 203 207 214 222 229 235 237 239 245 250 256 261 262 262 264 267 269 271 274 281 289 293 290 287 289 287 276 278
319 318 314 312 309 309 309 305 297 293 291 286 284 284 285 288 291 292 289 287 285 282 282 280 273 268 269 270 267 261 258 253 238 228 222 214 212 204 185 180 186 187 188 193 196 198 199 199 200 200 199 201 201 196 193 197 202 203 206 210 217 227 233 234 236 242 248 253 257 259 263 268 271 275 278 279 283 287 285 279 278 282 276 263 273
318 316 313 311 308 305 306 305 301 295 289 286 286 287 290 294 295 292 288 285 283 280 279 277 271 266 267 270 268 258 252 250 239 227 220 214 211 201 182 176 179 181 181 184 189 192 192 191 194 200 204 203 201 197 192 193 197 200 200 201 208 220 228 232 237 245 249 254 261 264 269 275 278 281 282 282 283 283 277 272 272 269 264 262 269
318 318 314 310 306 302 303 303 300 294 289 289 291 293 296 298 297 295 292 290 289 284 276 270 266 265 265 267 265 255 245 242 235 225 218 214 209 198 182 177 178 177 176 176 177 181 184 184 188 197 202 201 198 195 192 191 194 195 193 195 204 216 226 230 235 243 251 257 265 272 278 283 286 286 286 284 283 280 275 271 268 263 259 261 263
321 320 315 309 304 301 301 299 296 293 291 292 294 296 299 299 298 297 295 293 291 284 276 270 266 263 263 263 262 252 240 236 232 223 216 214 210 198 186 183 180 174 173 175 174 174 177 182 188 193 196 197 195 192 190 190 192 193 193 198 209 219 224 227 232 242 255 263 272 280 285 289 290 289 288 288 287 285 278 271 267 264 260 259 259
327 322 315 310 305 300 298 295 293 293 294 296 297 298 301 302 301 299 296 293 290 284 279 275 270 264 260 259 258 252 241 234 231 225 216 213 212 202 190 186 183 175 170 171 173 175 179 185 191 193 193 192 190 189 190 187 185 190 195 196 205 215 216 220 231 246 259 269 279 285 288 291 294 297 299 301 303 301 291 280 271 266 261 259 259
327 320 315 314 310 303 298 295 294 295 299 304 304 302 302 302 302 301 297 292 289 287 285 281 271 263 257 252 250 249 243 235 229 226 220 213 212 207 191 183 183 179 173 172 173 176 182 188 192 193 190 186 185 186 186 179 175 181 183 178 187 202 210 218 233 249 265 274 280 284 288 294 302 308 315 318 321 323 317 309 295 277 269 265 263
325 321 318 317 313 307 302 299 299 301 308 311 309 304 301 300 299 297 293 289 288 288 288 283 268 257 252 245 240 239 237 233 225 222 221 214 212 209 193 180 181 182 179 178 178 179 184 190 191 188 182 180 182 179 173 168 163 160 162 171 187 200 209 223 240 256 269 273 275 283 294 302 305 312 320 327 331 333 330 327 319 299 283 277 275
325 324 318 314 312 308 303 303 304 308 314 315 309 301 296 295 295 294 292 292 292 291 290 285 269 250 239 233 232 227 224 225 219 213 215 214 212 211 192 176 177 183 182 180 183 187 190 190 185 179 178 177 172 160 152 150 148 151 164 180 194 203 213 230 247 257 259 262 271 287 302 308 310 319 329 335 343 344 341 342 343 334 313 302 300
325 323 317 316 316 310 304 306 310 312 316 317 310 301 295 293 295 296 299 302 300 296 289 281 269 245 226 222 223 216 212 216 215 207 206 206 207 209 191 173 175 185 187 185 188 188 186 183 178 175 174 165 152 142 139 141 149 161 175 187 195 207 225 237 243 243 244 253 272 292 307 318 326 337 346 350 357 358 353 351 352 352 346 334 327
326 322 320 323 322 314 306 311 314 314 318 318 310 302 299 300 299 298 304 308 305 303 291 275 260 234 223 217 209 206 203 205 207 203 200 198 196 201 190 174 172 178 180 177 179 178 174 170 166 160 152 144 142 144 146 152 162 171 178 188 201 213 224 226 222 224 231 246 278 303 317 331 345 359 5 5 7 6 1 357 355 354 353 346 333
325 321 320 322 322 315 316 324 325 321 319 313 305 301 302 305 304 305 310 312 306 302 293 272 258 241 228 206 189 194 200 202 204 202 197 195 192 190 183 171 166 167 167 165 163 161 156 147 141 140 139 138 142 148 151 157 165 172 177 187 198 202 201 201 202 201 205 236 292 321 334 348 2 10 15 15 11 8 7 6 1 355 354 353 338
324 322 321 323 325 327 330 331 326 320 313 306 304 306 310 310 307 306 312 315 309 302 294 281 271 263 241 209 190 190 201 209 213 208 198 194 190 185 177 166 160 160 162 159 151 142 137 134 133 136 138 139 142 145 150 157 160 164 175 184 185 187 190 189 183 175 176 216 322 337 351 8 15 15 16 17 14 11 10 9 4 357 354 353 338
324 323 323 326 329 331 332 328 325 321 312 304 304 311 320 323 319 308 308 318 321 315 310 302 285 268 250 227 214 217 225 226 218 205 195 191 186 182 174 164 159 156 157 155 146 137 134 134 135 137 139 142 147 150 156 161 161 163 172 177 179 184 185 179 172 169 163 143 2 350 6 18 21 17 15 13 13 14 14 10 4 359 355 350 338
322 321 324 325 326 329 330 328 327 324 317 312 309 313 321 326 327 322 317 328 336 338 343 341 321 272 248 241 231 228 235 237 206 186 186 184 178 174 167 159 156 155 156 153 144 138 139 139 138 143 147 150 156 161 163 165 167 170 173 176 181 184 179 174 176 171 155 149 23 20 25 24 21 19 15 12 12 15 13 8 3 358 355 353 344
320 318 320 320 323 328 329 328 327 325 322 321 320 321 321 322 325 329 333 345 1 18 22 9 356 319 258 241 230 217 213 209 189 179 181 180 174 168 163 157 153 154 157 153 142 140 147 145 145 152 154 156 163 168 169 169 172 175 176 178 182 180 173 171 171 163 156 164 104 47 37 30 27 23 18 14 15 16 11 5 2 359 356 357 354
320 317 317 319 323 326 325 325 325 322 321 320 323 328 328 325 326 326 328 343 8 32 24 8 352 327 295 240 225 215 196 186 181 176 175 176 170 164 162 158 153 154 157 150 138 142 152 151 153 157 158 162 168 170 171 173 176 178 179 180 178 174 170 170 167 159 159 157 102 60 44 37 33 29 25 23 22 19 11 3 1 1 359 356 353
322 318 318 321 322 321 321 321 318 316 318 321 327 331 330 329 334 328 323 337 356 0 357 360 355 335 320 240 207 200 186 178 177 172 171 172 167 160 159 157 152 154 158 151 143 147 153 151 153 157 160 166 171 171 172 176 177 178 179 177 173 171 171 170 164 159 162 151 108 73 50 41 35 30 29 29 28 22 13 6 3 1 359 354 349
325 321 321 322 320 317 317 317 316 316 319 322 326 327 326 330 335 330 321 332 346 343 344 351 355 351 331 285 198 180 176 175 173 170 169 168 163 159 157 150 144 146 152 151 149 154 157 155 155 159 165 170 173 174 176 176 176 178 178 174 172 174 173 168 165 166 167 151 116 83 56 45 38 32 30 30 29 24 14 7 5 2 357 354 350
326 322 321 322 322 319 317 317 318 317 317 318 319 322 326 332 333 330 329 338 345 346 345 348 355 3 1 290 188 167 167 169 169 168 167 166 163 160 153 143 138 138 142 146 147 151 157 159 159 163 170 174 176 178 179 177 176 178 177 173 173 174 170 167 168 171 166 146 120 89 63 52 42 37 36 34 32 28 17 9 8 6 0 358 356
324 320 320 321 322 321 320 319 319 317 316 316 318 321 327 333 334 331 335 350 360 2 360 360 4 15 27 41 133 153 157 159 160 163 164 166 164 158 145 139 139 137 136 142 147 147 152 160 164 168 173 177 178 179 180 178 176 176 176 175 176 173 168 170 174 172 160 143 129 103 72 57 46 38 37 37 35 31 24 16 13 9 5 4 1
323 320 320 320 320 320 319 318 319 319 318 319 322 324 325 329 334 334 340 6 18 10 10 14 13 12 15 25 95 142 146 145 148 156 162 161 153 143 137 138 140 138 139 148 153 153 157 165 168 171 176 178 179 179 179 177 176 176 175 174 174 172 173 177 179 173 164 154 140 114 79 60 53 44 36 35 36 32 24 20 16 11 8 7 4
324 322 321 321 321 321 318 317 317 318 317 320 324 323 320 325 334 334 338 15 29 18 17 21 16 13 16 26 96 135 133 127 130 135 137 134 132 135 139 141 142 145 150 156 158 160 164 167 170 173 178 179 179 179 177 176 176 176 174 173 173 175 180 183 177 169 166 167 148 116 85 62 56 49 39 36 37 31 25 23 19 12 7 4 2
324 323 321 322 323 320 316 315 314 314 316 319 319 315 314 323 331 328 330 20 37 31 29 21 16 26 27 29 96 136 128 116 117 121 122 123 126 133 140 145 150 156 160 165 169 170 170 169 171 175 179 179 179 178 177 176 176 175 175 177 178 178 180 181 176 170 171 170 152 116 88 67 56 50 43 39 37 31 26 24 21 17 12 6 2
324 322 320 320 321 318 315 314 313 312 313 312 309 306 310 319 323 320 326 21 45 57 49 27 25 42 35 32 101 142 135 124 120 122 126 129 131 136 144 153 161 165 168 171 175 177 176 174 175 177 178 179 179 177 175 176 178 177 178 180 181 179 178 177 175 174 175 168 148 120 91 69 57 51 46 41 37 31 27 26 23 21 17 13 9
324 323 322 322 321 318 315 313 314 314 313 309 303 303 308 314 315 313 320 24 61 76 67 49 55 59 48 58 113 142 139 130 129 130 131 133 137 143 152 160 168 173 175 177 178 180 181 179 178 179 179 179 179 177 176 178 180 180 180 181 182 181 179 175 173 174 175 168 150 129 99 71 57 48 42 38 33 29 26 24 24 23 20 17 15
325 324 324 321 319 317 314 311 310 309 308 307 306 305 306 307 305 303 312 36 81 92 88 88 92 80 74 94 126 141 138 133 135 135 135 139 144 149 155 162 168 173 178 179 178 179 180 180 180 181 180 178 177 176 178 179 181 180 180 180 183 184 181 177 174 175 175 167 151 135 107 75 59 42 33 32 28 25 23 20 19 20 19 16 16
328 326 326 325 323 322 320 315 310 307 308 311 311 308 307 303 295 289 296 66 101 101 102 110 111 100 99 113 131 137 135 135 138 137 138 144 150 154 160 166 169 172 175 176 175 176 178 181 181 179 177 175 175 176 179 180 180 180 179 178 181 184 182 178 175 172 167 160 150 136 109 82 62 35 25 25 21 17 17 17 15 15 15 13 13
331 329 329 330 329 327 325 322 317 314 315 314 310 306 306 304 291 274 265 144 109 103 106 118 120 113 113 121 129 132 133 136 138 138 141 148 152 155 159 164 166 168 169 170 172 175 178 181 180 174 171 172 172 172 176 178 179 179 179 178 180 180 176 171 167 162 155 152 144 130 110 87 57 29 18 19 16 12 10 11 10 10 10 9 8
334 332 333 333 330 328 326 326 323 321 320 317 308 302 305 306 290 239 192 103 106 104 108 119 124 119 119 126 132 134 135 136 138 140 145 150 151 150 152 155 157 160 162 165 170 175 178 179 177 171 168 167 166 166 170 172 173 173 174 172 171 169 164 161 161 157 151 147 137 121 112 82 40 23 13 9 9 8 5 3 3 5 6 5 3
336 335 336 336 334 331 330 331 331 328 325 321 315 308 306 305 184 129 104 93 98 101 108 119 124 123 124 131 137 138 136 138 142 145 148 150 149 147 149 151 153 156 159 163 168 172 174 175 174 169 165 163 162 162 165 168 168 167 166 163 163 165 164 161 159 155 152 149 142 132 123 76 21 14 10 5 3 1 359 358 357 358 359 360 359
339 338 339 339 339 337 336 336 336 332 329 332 336 339 350 57 93 90 90 92 93 100 111 120 124 124 125 132 139 140 139 143 147 147 148 149 149 148 149 150 151 153 157 160 163 166 168 170 170 167 164 163 162 163 165 168 168 166 164 164 165 165 164 163 162 160 158 157 153 147 142 69 9 357 358 359 356 353 354 353 352 352 352 352 353
340 341 341 342 342 341 340 340 339 336 338 345 357 9 28 63 78 83 94 100 98 107 121 126 126 127 128 132 138 141 143 145 146 145 146 147 148 148 149 148 149 151 154 157 159 161 163 165 167 166 165 164 165 165 167 167 168 168 167 167 166 163 162 165 166 163 162 162 158 152 156 53 14 1 355 356 353 350 349 347 347 349 348 346 346
341 343 344 344 344 344 342 342 345 346 347 352 2 11 23 49 69 82 101 109 109 117 127 127 125 129 133 137 142 144 144 144 144 144 145 148 149 149 147 145 146 149 152 154 156 158 159 162 165 166 166 166 166 166 165 165 166 168 167 166 166 164 163 165 167 165 166 169 163 145 140 93 30 16 5 358 352 346 346 346 344 344 344 343 343
342 345 346 345 345 344 341 342 347 349 349 353 2 8 16 39 62 79 101 111 113 119 124 123 123 130 137 142 145 144 143 143 144 144 146 149 150 147 143 141 143 146 148 151 154 155 158 162 164 165 166 166 163 162 161 161 162 164 164 164 166 166 163 164 167 169 167 165 152 121 99 64 27 13 2 354 349 344 342 342 340 340 341 341 340